OBJECT B, 57425

Orbit data source: Space-Track

You're viewing an Uncataloged Satellite

Recently launched and/or uncataloged satellites may have evolving metadata. Metadata may include but not limited to: Owner, Maufacturer, Bus, Motor, and Mission.

OBJECT B, 57425 is a satellite owned by Sixiang Aishu (CN) in SSO that was launched on Sun, 23 Jul 2023 UTC via a CHANG ZHENG 2D launch vehicle from the Taiyaun Space Center, China (TSC). Unknown objects in Earth's orbit typically refer to objects detected orbiting the Earth but have not yet been identified or cataloged. These objects could be anything from previously untracked satellites, spent rocket stages, debris from satellite collisions, or even natural meteoroids temporarily captured by Earth's gravity.

Loading next visibility...
Identifier
57425, 2023-104B
Orbit
SSO
Last TLE update
3 hours ago
Origin
Flag of CNSXAK (CN / PRC)
Manufacturer
Yinhe
Mission
Operational Commercial Imaging
Bus & Motor
AS, Unknown motor
Mass
~100 kg wet, ~100 kg dry
Launch date (UTC)
2023-07-23 (2 years ago)
Launch vehicle
CHANG ZHENG 2D
Launch site
Taiyaun Space Center, China (TSC)
Object type
Unknown
Shape & HBR
Box + 2 Pan, 1.5 m
Radar Cross Section
0.363 m², Medium (>0.1 m² and < 1m²)

Expand to show TLE details & history

TLE from 3 hours ago
0 OBJECT B
1 57425U 23104B   25129.55111829  .00028831  00000-0  52355-3 0  9999
2 57425  97.3096 203.4447 0009292 107.0618 253.1652 15.49484115100555
Epoch: 2025-05-09T13:13Z
Definitive object data (Epoch: 2025-05-09T13:13:36.62Z)
Latitude
-0°
Longitude
137.43648°
Altitude
423.202 km
Speed
7.656 km/s
True Right ascension
13h 33m 46s
True Declination
0° 00' 00"
Sunlit
Object was in full shadow at TLE epoch
Visualization TLE readout
Latitude
-23.50367°
Longitude
140.74315°
Altitude
431.246 km
Speed
7.649 km/s
Apparent Right ascension
13h 10m 33s
Apparent Declination
-31° 41' 30"
Sunlit
Object is in full shadow
Visualization observer readout
Local Sidereal Time
00:23:56
Azimuth
307.485° NW
Elevation
-77.492°
Doppler factor
1
Orbital elements
Apogee altitude
421.469 km
Perigee altitude
408.844 km
Semi-major axis
6,793.294 km
Eccentricity
0.0009292
Inclination
97.3096°
RAAN
203.4447°
Arg. of periapsis
107.0618°
True anomaly
253.06332°
Mean anomaly
253.1652°
Eccentric anomaly
253.11426°
Mean motion
3.87635 °/min
BSTAR
0.00052355
Orbital period
92.87 mins
Loading maneuver chart data...
Loading SW <> Apogee altitude chart data...
Loading historical data...
Loading historical data...
Loading historical data...
Loading historical data...
Loading historical data...
Loading historical data...
Loading historical data...
Other satellites on launch #104 in the year 2023 (2023-07-23 UTC)

OBJECT B Visibility forecast

Observer location: undefined°, undefined°

Span
Click to sort rows by Start time (UTC) header in descending order
Start Az.
Max El. time (UTC)
Max El. Az.
Max El.
End time (UTC)
End Az.
4 mins2025-05-10 04:52:30.224Z156.804° SSE2025-05-10 04:53:30.224Z138.798° SSE40.38°2025-05-10 04:56:30.224Z353.058° N
|